CZ-2C R/B (45463 NORAD) Tracking and Keplerian Element Data

This shows tracking and keplerian element data for the satellite.

Feedback or suggestion? Click here.




ElementValue
Catalog45463
NameCZ-2C R/B
Epoch Orbit456
Epoch Day113.92716985
Epoch Year2020
RAAN25.4418
Inclination34.6812
Eccentricity0.0152333
Argument of Perigee334.9164
Mean Anonmoly24.4208
Mean Motion15.21441452
Decay Rate1.887E-05
L11 45463U 20021D 20113.92716985 .00001887 00000-0 60367-4 0 9991
L22 45463 34.6812 25.4418 0152333 334.9164 24.4208 15.21441452 4563



Live tracking and technical data element details for CZ-2C R/B (NORAD 45463). CZ-2C R/B can be tracked NOW for your location showing map with azimuth and elevation plus other details from your city location.







IsCatalogInMostPopularTable: catalog: 45463, numindb: 139
Update: records affected: 1



GetName: 45463 CZ-2C R/B

Hit Count: updated at: Sun, 28 May 2023 19:49:20 GMT